TEMELIN Weather Reports


Display with metric or nautical units.
time (UTC)temp
F
wind
direction
speed
MPH
gust
MPH
rain 1hr
in
rain 24hr
in
rain mn
in
humidity
%
barometer
mb
20260905021822 64 360 12.0 0.0 0.00 0.00 0.00 63
20260905012123 64 20 20.0 0.0 0.00 0.00 0.00 72
20260905001837 73 280 7.0 0.0 0.00 0.00 0.00 53
20260904231907 73 260 7.0 0.0 0.00 0.00 0.00 53
20260904222254 70 240 7.0 0.0 0.00 0.00 0.00 56
20260904211839 70 230 5.0 0.0 0.00 0.00 0.00 60
20260904201838 73 220 5.0 0.0 0.00 0.00 0.00 49
20260904192123 75 250 7.0 0.0 0.00 0.00 0.00 47
20260904181837 75 240 7.0 0.0 0.00 0.00 0.00 47
20260904171838 79 240 12.0 0.0 0.00 0.00 0.00 41
20260904162122 82 240 16.0 0.0 0.00 0.00 0.00 37
20260904151855 82 250 14.0 0.0 0.00 0.00 0.00 39
20260904141838 81 240 18.0 0.0 0.00 0.00 0.00 44
20260904132056 79 250 14.0 24.0 0.00 0.00 0.00 47
20260904121822 81 250 14.0 0.0 0.00 0.00 0.00 47
20260904111823 79 250 18.0 0.0 0.00 0.00 0.00 47
20260904102239 75 250 12.0 0.0 0.00 0.00 0.00 53
20260904091837 73 270 9.0 0.0 0.00 0.00 0.00 60
20260904081838 70 210 5.0 0.0 0.00 0.00 0.00 64
20260904072039 68 220 7.0 0.0 0.00 0.00 0.00 72
20260904061822 63 220 5.0 0.0 0.00 0.00 0.00 77
20260904051822 61 210 5.0 0.0 0.00 0.00 0.00 82
20260904042224 63 200 5.0 0.0 0.00 0.00 0.00 77
20260904031821 63 240 5.0 0.0 0.00 0.00 0.00 72